Location: Ariel
(45.9570°N, 122.5700°W)
Time: 15:10:46
(UTC-08:00)

Transit 4A - Pass Details

Date: 07 November 2020
Orbit: 862 x 982 km, 66.8° (Epoch: 03 December)

Event Time Altitude Azimuth Distance (km) Brightness Sun altitude
Rises 19:21:01 0° 327° (NNW) 3,695 11.5 -26.9°
Reaches altitude 10° 19:24:25 10° 345° (NNW) 2,745 10.6 -27.5°
Enters shadow 19:27:45 19° 15° (NNE) 2,164 9.7 -28.1°
